Home > Weather > Marigot > Past weeks

Past Weather in Marigot, Saint Martin — Yesterday and Last 2 Weeks

Now
86 °F

Partly sunny.


Feels Like: 95 °F
Forecast: 82 / 88 °F
Wind: 18 mph from East

Location: Juliana Airport - Saint Maarten

Current Time: Jul 25, 2016 at 12:07:48 PM

Latest Report: Jul 25, 2016 at 11:00 AM


Visibility: N/A

Pressure: 30.01 "Hg

Humidity: 70%

Dew Point: 75 °F

Location of MarigotLocation

Past Weather in Marigot — Graph

°F

Marigot Temperature Yesterday

Maximum temperature yesterday: 86 °F (at 1:00 PM)
Minimum temperature yesterday: 77 °F (at 6:00 AM)
Average temperature yesterday: 82 °F

High & Low Weather Summary for the Past Weeks

 TemperatureHumidityPressure
High90 °F (Jul 17, 1:00 PM)94% (Jul 13, 3:00 AM)30.12 "Hg (Jul 13, 3:00 AM)
Low77 °F (Jul 13, 6:00 AM)55% (Jul 22, 2:00 PM)29.95 "Hg (Jul 15, 4:00 PM)
Average84 °F76%30.02 "Hg
* Reported Jul 10 10:00 AM — Jul 25 10:00 AM, Marigot, Weather by CustomWeather, © 2016

Note: Actual official high and low records may vary slightly from our data, if they occured in-between our weather recording intervals... More about our weather records

Advertising

Marigot Weather History for the Previous 24 Hours

Scroll right to see more
 ConditionsComfort  
Time TempWeatherWind HumidityBarometerVisibility
10:00 AM
Mon, Jul 25
84 °FPartly sunny.16 mph74%30.04 "HgN/A
9:00 AM84 °FPartly sunny.14 mph79%N/AN/A
8:00 AM84 °FPassing clouds.13 mph74%30.01 "HgN/A
7:00 AM82 °FSprinkles. Partly sunny.9 mph79%30.01 "HgN/A
6:00 AM82 °FPassing clouds.10 mph79%30.01 "HgN/A
5:00 AM82 °FPassing clouds.9 mph79%29.98 "HgN/A
4:00 AM82 °FPassing clouds.7 mph79%29.98 "HgN/A
3:00 AM82 °FPassing clouds.9 mph79%29.98 "HgN/A
2:00 AM82 °FPassing clouds.8 mph79%29.98 "HgN/A
1:00 AM82 °FPassing clouds.12 mph79%30.01 "HgN/A
12:00 AM82 °FPassing clouds.13 mph79%30.01 "HgN/A
11:00 PM
Sun, Jul 24
82 °FPassing clouds.14 mph79%30.04 "HgN/A
10:00 PM82 °FPassing clouds.10 mph79%30.04 "HgN/A
9:00 PM82 °FPassing clouds.10 mph79%30.04 "HgN/A
8:00 PM82 °FPassing clouds.12 mph79%30.01 "HgN/A
7:00 PM81 °FPassing clouds.7 mph84%30.01 "HgN/A
6:00 PM79 °FScattered showers. Partly sunny.8 mph84%30.01 "HgN/A
5:00 PM84 °FPassing clouds.10 mph74%29.98 "HgN/A
4:00 PM86 °FScattered clouds.10 mph66%29.98 "HgN/A
3:00 PM84 °FScattered clouds.10 mph70%30.01 "HgN/A
2:00 PM86 °FScattered clouds.14 mph70%30.01 "HgN/A
1:00 PM86 °FScattered clouds.12 mph66%30.01 "HgN/A
12:00 PM84 °FScattered clouds.15 mph74%30.01 "HgN/A
Weather by CustomWeather, © 2016

See weather overviewHow to use our weather pages